FW0827 Weather Reports


Display with metric or nautical units.
time (UTC)temp
F
wind
direction
speed
MPH
gust
MPH
rain 1hr
in
rain 24hr
in
rain mn
in
humidity
%
barometer
mb
20260905145204 74 342 5.0 9.0 0.00 0.04 0.00 79 1012.3
20260905144704 74 20 6.0 12.0 0.00 0.04 0.00 80 1012.4
20260905142704 73 354 2.0 12.0 0.00 0.04 0.00 82 1012.1
20260905142204 72 43 6.0 17.0 0.00 0.04 0.00 82 1012.6
20260905141703 72 358 6.0 17.0 0.00 0.04 0.00 82 1012.3
20260905141204 72 313 5.0 13.0 0.00 0.04 0.00 83 1012.2
20260905140205 72 334 7.0 20.0 0.00 0.04 0.00 82 1012.4
20260905135704 72 337 8.0 17.0 0.00 0.04 0.00 83 1012.3
20260905134206 72 347 3.0 9.0 0.00 0.04 0.00 85 1012.5
20260905133705 72 28 4.0 12.0 0.00 0.04 0.00 85 1012.4
20260905133204 72 3 3.0 7.0 0.00 0.04 0.00 86 1012.3
20260905132705 72 310 2.0 8.0 0.00 0.04 0.00 86 1012.3
20260905132204 72 320 1.0 5.0 0.00 0.04 0.00 86 1012.3
20260905131204 70 346 1.0 7.0 0.00 0.04 0.00 88 1012.1
20260905130704 70 320 2.0 7.0 0.00 0.04 0.00 87 1012.1
20260905130204 70 353 1.0 3.0 0.00 0.04 0.00 88 1012.3
20260905125704 70 331 2.0 7.0 0.00 0.04 0.00 88 1012.2
20260905124705 69 315 1.0 5.0 0.00 0.04 0.00 90 1012.2
20260905124206 69 314 0.0 1.0 0.00 0.04 0.00 91 1012.2
20260905123204 69 318 0.0 0.0 0.00 0.04 0.00 93 1012.1
20260905122704 69 318 0.0 0.0 0.00 0.04 0.00 94 1012.2
20260905122204 69 318 0.0 0.0 0.00 0.04 0.00 94 1012.4
20260905121204 70 319 0.0 0.0 0.00 0.04 0.00 93 1012.2
20260905120706 69 319 0.0 0.0 0.00 0.04 0.00 91 1012.3
20260905120203 69 328 0.0 1.0 0.00 0.04 0.00 90 1012.2
20260905114205 67 344 1.0 5.0 0.00 0.04 0.00 97 1012.2
20260905113704 67 329 0.0 1.0 0.00 0.04 0.00 98 1012.3
20260905113205 68 323 0.0 0.0 0.00 0.04 0.00 99 1012.1
20260905112704 68 324 0.0 0.0 0.00 0.04 0.00 99 1012.2
20260905112204 68 324 0.0 0.0 0.00 0.04 0.00 99 1012.1
20260905111704 68 324 0.0 0.0 0.00 0.04 0.00 99 1011.9
20260905111204 68 324 0.0 0.0 0.00 0.04 0.00 98 1012.0
20260905110204 67 324 0.0 0.0 0.00 0.04 0.00 98 1012.0
20260905105705 68 323 0.0 0.0 0.00 0.04 0.00 98 1012.0
20260905105204 68 323 0.0 0.0 0.00 0.04 0.00 97 1011.8
20260905104704 68 324 0.0 0.0 0.00 0.04 0.00 97 1011.5
20260905104205 68 324 0.0 1.0 0.00 0.04 0.00 97 1011.6
20260905103705 68 324 0.0 1.0 0.00 0.04 0.00 97 1011.4
20260905103204 69 335 0.0 1.0 0.00 0.04 0.00 97 1011.2
20260905102705 69 335 0.0 0.0 0.00 0.04 0.00 96 1011.3
20260905101704 69 335 0.0 0.0 0.00 0.04 0.00 94 1011.3
20260905101204 69 335 0.0 3.0 0.00 0.04 0.00 92 1011.3
20260905100704 69 329 0.0 1.0 0.00 0.04 0.00 91 1011.2
20260905100204 69 324 0.0 0.0 0.00 0.04 0.00 91 1011.3
20260905095705 69 324 0.0 0.0 0.00 0.04 0.00 91 1011.4
20260905095206 69 324 0.0 1.0 0.00 0.04 0.00 91 1011.3
20260905094706 69 324 0.0 3.0 0.00 0.04 0.00 90 1011.2
20260905094205 69 323 1.0 3.0 0.00 0.04 0.00 90 1011.3
20260905093704 69 328 1.0 5.0 0.00 0.04 0.00 90 1011.3
20260905093204 69 352 2.0 5.0 0.00 0.04 0.00 91 1011.3
20260905092705 69 329 1.0 5.0 0.00 0.04 0.00 92 1011.2
20260905092205 69 331 2.0 5.0 0.00 0.04 0.00 93 1011.2
20260905091705 69 330 1.0 5.0 0.00 0.04 0.00 94 1011.1
20260905091204 69 337 1.0 5.0 0.00 0.04 0.00 95 1011.1
20260905090704 68 345 2.0 5.0 0.00 0.04 0.00 98 1011.1
20260905090204 68 348 2.0 5.0 0.00 0.04 0.00 99 1011.3
20260905085704 67 1 2.0 7.0 0.00 0.04 0.00 99 1011.3
20260905085204 67 5 3.0 7.0 0.00 0.04 0.00 99 1011.2
20260905084705 67 350 0.0 5.0 0.00 0.04 0.00 99 1011.2
20260905084204 67 340 1.0 7.0 0.00 0.04 0.00 99 1011.0
20260905083704 67 348 3.0 7.0 0.00 0.04 0.00 99 1011.0
20260905083205 68 348 2.0 5.0 0.00 0.04 0.00 99 1011.2
20260905082204 68 302 0.0 0.0 0.00 0.04 0.00 99 1011.1
20260905081706 68 298 0.0 0.0 0.00 0.04 0.00 99 1011.1
20260905081205 68 298 0.0 0.0 0.00 0.04 0.00 99 1011.1
20260905080204 68 294 0.0 0.0 0.00 0.04 0.00 99 1011.0
20260905075704 68 357 0.0 0.0 0.00 0.04 0.00 99 1011.2
20260905075204 68 357 0.0 0.0 0.00 0.04 0.00 99 1011.2
20260905074704 68 357 0.0 0.0 0.00 0.04 0.00 99 1011.1
20260905074204 67 357 0.0 0.0 0.00 0.04 0.00 99 1011.3
20260905073704 67 357 0.0 0.0 0.00 0.04 0.00 99 1011.3
20260905073204 67 357 0.0 0.0 0.00 0.04 0.00 99 1011.3
20260905072705 67 357 0.0 0.0 0.00 0.04 0.00 99 1011.2
20260905072204 67 357 0.0 0.0 0.00 0.04 0.00 99 1011.2
20260905071704 67 357 0.0 0.0 0.00 0.04 0.00 99 1011.2
20260905071205 67 357 0.0 0.0 0.00 0.04 0.00 99 1011.2
20260905070704 68 357 0.0 0.0 0.00 0.04 0.00 99 1011.3
20260905070204 68 357 0.0 0.0 0.00 0.04 0.00 99 1011.3
20260905065705 68 357 0.0 0.0 0.00 0.04 0.00 99 1011.3
20260905065204 68 357 0.0 0.0 0.00 0.04 0.00 99 1011.4
20260905064703 67 357 0.0 0.0 0.00 0.04 0.00 99 1011.4
20260905064204 68 357 0.0 0.0 0.00 0.04 0.00 99 1011.5
20260905063704 68 357 0.0 0.0 0.00 0.04 0.00 99 1011.4
20260905063204 68 357 0.0 0.0 0.00 0.04 0.00 99 1011.3
20260905062704 69 357 0.0 0.0 0.00 0.04 0.00 99 1011.5
20260905061205 69 357 0.0 1.0 0.00 0.04 0.00 99 1011.5
20260905060704 69 357 0.0 0.0 0.00 0.04 0.00 99 1011.5
20260905055705 69 357 0.0 0.0 0.00 0.04 0.00 99 1011.3
20260905055204 69 357 0.0 0.0 0.00 0.04 0.00 99 1011.7
20260905054704 70 357 0.0 0.0 0.00 0.04 0.00 99 1011.6
20260905054204 70 357 0.0 0.0 0.00 0.04 0.00 99 1011.6
20260905053705 70 357 0.0 0.0 0.00 0.04 0.00 99 1011.7
20260905053206 70 357 0.0 1.0 0.00 0.04 0.00 99 1011.6
20260905052704 70 357 0.0 1.0 0.00 0.04 0.00 99 1011.7
20260905052204 70 357 0.0 0.0 0.00 0.04 0.00 99 1011.8
20260905051704 70 357 0.0 0.0 0.00 0.04 0.00 99 1011.9
20260905051205 71 357 0.0 0.0 0.00 0.04 0.00 99 1011.8
20260905050704 71 357 0.0 0.0 0.00 0.04 0.00 99 1011.9
20260905045705 71 357 0.0 0.0 0.02 0.04 0.00 99 1011.9
20260905045204 71 356 0.0 0.0 0.02 0.04 0.00 99 1011.9
20260905044706 71 356 0.0 0.0 0.02 0.04 0.00 99 1011.8
20260905043204 71 356 0.0 0.0 0.03 0.04 0.00 99 1012.1
20260905042704 72 356 0.0 1.0 0.03 0.04 0.00 99 1012.2
20260905042205 72 356 0.0 1.0 0.03 0.04 0.00 99 1012.3
20260905041704 72 356 0.0 1.0 0.04 0.04 0.00 99 1012.3
20260905041204 72 356 0.0 0.0 0.00 0.04 0.00 99 1012.3
20260905040707 72 357 0.0 1.0 0.00 0.04 0.00 99 1012.3
20260905035704 72 16 1.0 8.0 0.02 1.32 0.02 99 1012.5
20260905034705 73 332 1.0 1.0 0.02 1.32 0.02 99 1012.7
20260905034204 73 331 1.0 3.0 0.02 1.32 0.02 99 1012.3
20260905033705 73 332 1.0 3.0 0.02 1.32 0.02 99 1012.2
20260905033206 73 331 0.0 0.0 0.01 1.31 0.01 99 1012.3
20260905032704 74 332 0.0 0.0 0.01 1.31 0.01 99 1012.2
20260905032204 73 287 0.0 0.0 0.01 1.31 0.01 99 1012.4
20260905031204 74 284 0.0 0.0 0.00 1.30 0.00 99 1012.3
20260905030705 74 284 0.0 0.0 0.00 1.30 0.00 99 1012.1
20260905030204 74 284 0.0 0.0 0.00 1.30 0.00 99 1012.1
20260905025704 74 284 0.0 0.0 0.00 1.30 0.00 99 1012.1
20260905025204 74 284 0.0 0.0 0.00 1.30 0.00 99 1011.9
20260905024705 74 284 0.0 0.0 0.00 1.30 0.00 99 1011.9
20260905024207 74 284 0.0 1.0 0.00 1.30 0.00 99 1012.0
20260905023705 74 282 0.0 1.0 0.00 1.30 0.00 99 1011.8
20260905023204 74 321 0.0 0.0 0.00 1.30 0.00 99 1012.1
20260905022204 74 321 0.0 0.0 0.00 1.30 0.00 98 1012.0
20260905021706 74 321 0.0 0.0 0.00 1.30 0.00 98 1011.9
20260905021204 74 321 0.0 0.0 0.00 1.30 0.00 98 1011.8
20260905020705 74 321 0.0 0.0 0.00 1.30 0.00 98 1012.1
20260905020204 74 321 0.0 0.0 0.00 1.30 0.00 98 1011.8
20260905015705 74 321 0.0 0.0 0.00 1.30 0.00 97 1012.0
20260905015204 74 321 0.0 0.0 0.00 1.30 0.00 97 1011.9
20260905014705 75 321 0.0 0.0 0.00 1.30 0.00 97 1012.1
20260905014205 74 321 0.0 0.0 0.00 1.30 0.00 97 1011.9
20260905013704 74 321 0.0 0.0 0.00 1.30 0.00 96 1012.1
20260905013206 75 321 0.0 0.0 0.00 1.30 0.00 96 1011.9
20260905012704 75 321 0.0 0.0 0.00 1.30 0.00 96 1011.9
20260905012207 74 321 0.0 0.0 0.00 1.30 0.00 96 1011.8
20260905011705 74 326 0.0 0.0 0.00 1.30 0.00 96 1012.0
20260905011204 74 320 0.0 0.0 0.00 1.30 0.00 97 1011.7
20260905010704 75 331 0.0 0.0 0.00 1.30 0.00 97 1011.8
20260905010204 74 321 0.0 0.0 0.00 1.30 0.00 97 1011.9
20260905005705 75 321 0.0 0.0 0.00 1.30 0.00 97 1012.0
20260905005205 75 324 0.0 0.0 0.00 1.30 0.00 97 1012.1
20260905004704 75 322 0.0 1.0 0.00 1.30 0.00 97 1011.9
20260905004204 75 322 0.0 1.0 0.00 1.30 0.00 97 1011.9
20260905003705 75 318 0.0 0.0 0.00 1.30 0.00 96 1012.2
20260905003204 76 316 0.0 0.0 0.00 1.30 0.00 96 1012.0
20260905002705 76 315 0.0 0.0 0.00 1.30 0.00 96 1011.9
20260905002205 76 315 0.0 0.0 0.00 1.30 0.00 95 1011.6
20260905001705 76 315 0.0 0.0 0.00 1.30 0.00 95 1011.7
20260905000705 76 315 0.0 0.0 0.00 1.30 0.00 95 1011.9
20260905000205 76 315 0.0 0.0 0.00 1.30 0.00 96 1011.9
20260904235704 76 316 0.0 0.0 0.00 1.30 0.00 95 1011.7
20260904235204 76 315 0.0 0.0 0.00 1.30 0.00 94 1011.6
20260904234704 76 315 0.0 0.0 0.00 1.30 0.00 94 1011.6
20260904233204 77 316 0.0 0.0 0.00 1.30 0.00 92 1011.6
20260904232705 77 316 0.0 0.0 0.00 1.30 0.00 91 1011.5
20260904232204 78 316 0.0 0.0 0.00 1.30 0.00 91 1011.3
20260904231704 78 316 0.0 0.0 0.00 1.30 0.00 91 1011.3
20260904231205 78 316 0.0 0.0 0.00 1.30 0.00 90 1011.5
20260904230704 78 316 0.0 0.0 0.00 1.30 0.00 90 1011.3
20260904230204 78 316 0.0 0.0 0.00 1.30 0.00 89 1011.6
20260904225704 79 316 0.0 0.0 0.00 1.30 0.00 88 1011.6
20260904225205 79 316 0.0 0.0 0.00 1.30 0.00 88 1011.5
20260904224705 79 316 0.0 0.0 0.00 1.30 0.00 87 1011.8
20260904224204 80 316 0.0 0.0 0.00 1.30 0.00 86 1011.7
20260904223204 80 316 0.0 0.0 0.00 1.30 0.00 84 1011.9
20260904222705 81 314 0.0 0.0 0.00 1.30 0.00 83 1011.8
20260904222205 81 312 0.0 0.0 0.00 1.30 0.00 84 1011.8
20260904221704 81 312 0.0 1.0 0.00 1.30 0.00 84 1011.9
20260904221204 81 295 1.0 1.0 0.00 1.30 0.00 83 1012.2
20260904220704 81 300 0.0 0.0 0.00 1.30 0.00 85 1011.9
20260904215205 82 304 0.0 0.0 0.00 1.30 0.00 83 1012.3
20260904214204 81 304 0.0 0.0 0.00 1.30 0.00 82 1012.1
20260904213705 81 304 0.0 0.0 0.00 1.30 0.00 81 1012.2
20260904213205 81 304 0.0 0.0 0.00 1.30 0.00 81 1012.1
20260904212704 81 304 0.0 1.0 0.00 1.30 0.00 82 1012.2
20260904212204 81 297 0.0 1.0 0.00 1.30 0.00 81 1012.2
20260904211204 82 309 0.0 3.0 0.00 1.30 0.00 80 1012.3
20260904210704 83 309 0.0 0.0 0.00 1.30 0.00 81 1012.3
20260904210205 84 310 0.0 0.0 0.00 1.30 0.00 78 1012.4
20260904204704 84 314 0.0 1.0 0.00 1.30 0.00 79 1012.2
20260904204204 84 316 0.0 0.0 0.00 1.30 0.00 77 1012.0
20260904203204 83 340 0.0 1.0 0.00 1.30 0.00 77 1011.8
20260904202204 84 311 0.0 1.0 0.00 1.30 0.00 74 1011.8
20260904201204 84 319 0.0 3.0 0.00 1.30 0.00 76 1011.9
20260904200704 83 319 0.0 0.0 0.00 1.30 0.00 76 1012.3
20260904195705 82 311 0.0 1.0 0.00 1.30 0.00 77 1012.4
20260904195206 82 14 0.0 3.0 0.00 1.30 0.00 78 1012.6
20260904194704 82 18 0.0 3.0 0.00 1.30 0.00 76 1012.6
20260904193704 83 284 1.0 7.0 0.00 1.30 0.00 76 1012.8
20260904193204 83 335 2.0 7.0 0.00 1.30 0.00 75 1013.0
20260904192705 83 321 2.0 7.0 0.00 1.30 0.00 74 1012.8
20260904191204 85 320 1.0 7.0 0.00 1.30 0.00 75 1012.8
20260904190704 85 317 2.0 7.0 0.00 1.30 0.00 72 1012.9
20260904185704 85 303 0.0 3.0 0.00 1.30 0.00 73 1013.2
20260904185205 83 303 0.0 3.0 0.00 1.30 0.00 78 1013.1
20260904184706 83 11 0.0 3.0 0.00 1.30 0.00 77 1013.1
20260904184204 83 319 1.0 3.0 0.00 1.30 0.00 75 1013.2
20260904183704 82 307 2.0 5.0 0.00 1.30 0.00 75 1013.3
20260904183204 83 1 0.0 3.0 0.00 1.30 0.00 75 1013.2
20260904181704 86 303 2.0 5.0 0.00 1.30 0.00 72 1013.3
20260904181205 86 288 1.0 5.0 0.00 1.30 0.00 71 1013.3
20260904180204 85 305 1.0 3.0 0.00 1.30 0.00 74 1013.4
20260904175704 85 290 0.0 8.0 0.00 1.30 0.00 73 1013.4
20260904174704 85 296 1.0 5.0 0.00 1.30 0.00 74 1013.5
20260904174205 85 305 1.0 5.0 0.00 1.30 0.00 76 1013.4
20260904173705 84 300 0.0 9.0 0.00 1.30 0.00 74 1013.3
20260904173204 84 328 3.0 7.0 0.00 1.30 0.00 74 1013.4
20260904172704 84 295 2.0 9.0 0.00 1.30 0.00 76 1013.3
20260904172204 83 39 5.0 16.0 0.00 1.30 0.00 77 1013.4
20260904171206 82 350 2.0 8.0 0.00 1.30 0.00 77 1013.5
20260904170704 83 325 1.0 7.0 0.00 1.30 0.00 75 1013.5
20260904170206 83 15 1.0 7.0 0.00 1.30 0.00 76 1013.6
20260904165704 82 7 3.0 9.0 0.00 1.30 0.00 77 1013.7
20260904165205 82 342 2.0 12.0 0.00 1.30 0.00 78 1013.7
20260904164704 82 340 2.0 3.0 0.00 1.30 0.00 78 1013.6
20260904164204 82 259 1.0 7.0 0.00 1.30 0.00 76 1013.8
20260904163704 83 326 5.0 13.0 0.00 1.30 0.00 77 1013.5
20260904163204 83 323 1.0 3.0 0.00 1.30 0.00 78 1013.5
20260904162705 82 324 0.0 9.0 0.00 1.30 0.00 78 1013.5
20260904162204 82 300 3.0 12.0 0.00 1.30 0.00 77 1013.9
20260904161705 82 338 2.0 13.0 0.00 1.30 0.00 78 1013.9
20260904160704 80 327 2.0 8.0 0.00 1.30 0.00 78 1013.7
20260904160205 81 346 1.0 5.0 0.00 1.30 0.00 79 1013.7
20260904155705 81 284 1.0 3.0 0.00 1.30 0.00 79 1013.9
20260904155205 80 317 2.0 7.0 0.00 1.30 0.00 80 1013.7
20260904154705 80 345 2.0 8.0 0.00 1.30 0.00 80 1013.9
20260904153704 82 280 1.0 9.0 0.00 1.30 0.00 78 1013.9
20260904153205 82 342 3.0 9.0 0.00 1.30 0.00 78 1013.8
20260904152205 82 313 1.0 5.0 0.00 1.30 0.00 76 1013.8
20260904151706 82 12 1.0 5.0 0.00 1.30 0.00 80 1013.8
20260904151204 82 291 1.0 9.0 0.00 1.30 0.00 78 1013.8
20260904150704 80 305 4.0 12.0 0.00 1.30 0.00 80 1013.7
20260904150204 81 324 6.0 12.0 0.00 1.30 0.00 81 1013.8
20260904145704 80 356 3.0 12.0 0.00 1.30 0.00 81 1013.9